Leeuwarden, Netherlands

10:20 AM CET on February 22, 2017 (GMT +0100)
Leeuwarden Air Base

Weather History for EHLW - May, 2013

Change the Weather History Date:

Friday, May 17, 2013

  Actual Average Record
Temperature  
Mean Temperature 50 °F -  
Max Temperature 53 °F 62 °F 78 °F (1997)
Min Temperature 46 °F 48 °F 35 °F (2005)
Degree Days  
Heating Degree Days 16    
Moisture  
Dew Point 48 °F    
Average Humidity 95    
Maximum Humidity 100    
Minimum Humidity 84    
Precipitation  
Precipitation 0.02 in - - ()
Sea Level Pressure  
Sea Level Pressure 29.54 in    
Wind  
Wind Speed 6 mph ()    
Max Wind Speed 9 mph    
Max Gust Speed -    
Visibility 3.6 miles    
Events Rain    
Averages and records for this station are not official NWS values.
T = Trace of Precipitation, MM = Missing Value Source: Averaged Metar Reports

Daily Weather History Graph

Daily Weather History Graph

Search for Another Location

Airport or City:

Trip Planner

Search our weather history database for the weather conditions in past years. The results will help you decide how hot, cold, wet, or windy it might be!

Date:

Astronomy

May. 17, 2013 Rise Set
Actual Time 5:34 AM CEST 9:33 PM CEST
Civil Twilight 4:49 AM CEST 10:18 PM CEST
Nautical Twilight 3:45 AM CEST 11:23 PM CEST
Astronomical Twilight 2:05 AM CEST 1:00 AM CEST
Moon 12:14 PM CEST (5/17) 1:57 AM CEST (5/17)
Length of Visible Light 17h 28m
Length of Day
15h 58m
Waxing Crescent, 42% of the Moon is Illuminated
May 17
Waxing Crescent
May 18
First Quarter
May 25
Full
May 31
Last Quarter
Jun 8
New

Hourly Weather History & Observations

Time (CEST) Temp. Dew Point Humidity Pressure Visibility Wind Dir Wind Speed Gust Speed Precip Events Conditions
12:25 AM 48.2 °F 46.4 °F 93% 29.44 in 3.7 mi NNW 8.1 mph - N/A   Overcast
12:41 AM 48.2 °F 46.4 °F 93% 29.44 in 3.7 mi NW 5.8 mph - N/A   Overcast
12:48 AM 48.2 °F 46.4 °F 93% 29.44 in 3.7 mi NW 5.8 mph - N/A   Overcast
12:55 AM 48.2 °F 46.4 °F 93% 29.44 in 3.1 mi NNW 5.8 mph - N/A   Overcast
1:19 AM 48.2 °F 46.4 °F 93% 29.44 in - NW 4.6 mph - N/A   Overcast
1:25 AM 48.2 °F 46.4 °F 93% 29.44 in 3.1 mi NW 4.6 mph - N/A   Overcast
1:49 AM 48.2 °F 46.4 °F 93% 29.44 in - NW 5.8 mph - N/A   Overcast
1:55 AM 48.2 °F 46.4 °F 93% 29.44 in - NW 5.8 mph - N/A   Overcast
2:00 AM 49 °F 47 °F 90% 29.46 in 2 mi NW 4.5 mph - -   Mist
2:09 AM 48.2 °F 46.4 °F 93% 29.44 in 1.9 mi WNW 3.5 mph - N/A   Overcast
2:15 AM 48.2 °F 46.4 °F 93% 29.44 in 1.8 mi West 2.3 mph - N/A   Overcast
2:25 AM 48.2 °F 48.2 °F 100% 29.44 in 1.6 mi WNW 2.3 mph - N/A   Overcast
2:43 AM 48.2 °F 48.2 °F 100% 29.44 in 1.1 mi West 3.5 mph - N/A   Overcast
2:47 AM 48.2 °F 48.2 °F 100% 29.44 in 1.1 mi West 3.5 mph - N/A   Mostly Cloudy
2:55 AM 48.2 °F 48.2 °F 100% 29.44 in 0.9 mi WNW 3.5 mph - N/A   Overcast
3:20 AM 48.2 °F 48.2 °F 100% 29.44 in 1.1 mi West 3.5 mph - N/A   Overcast
3:25 AM 48.2 °F 48.2 °F 100% 29.44 in 0.7 mi West 3.5 mph - N/A   Overcast
3:29 AM 48.2 °F 48.2 °F 100% 29.44 in 0.7 mi West 3.5 mph - N/A   Overcast
3:42 AM 48.2 °F 48.2 °F 100% 29.47 in 0.7 mi WSW 3.5 mph - N/A   Overcast
3:49 AM 48.2 °F 48.2 °F 100% 29.47 in 0.7 mi WSW 4.6 mph - N/A   Overcast
3:55 AM 48.2 °F 48.2 °F 100% 29.47 in 0.7 mi WSW 3.5 mph - N/A   Mostly Cloudy
3:56 AM 48.2 °F 48.2 °F 100% 29.47 in 0.7 mi WSW 3.5 mph - N/A   Mostly Cloudy
4:03 AM 48.2 °F 48.2 °F 100% 29.47 in 0.7 mi West 3.5 mph - N/A   Overcast
4:07 AM 48.2 °F 48.2 °F 100% 29.47 in 0.7 mi West 3.5 mph - N/A   Overcast
4:09 AM 48.2 °F 48.2 °F 100% 29.47 in 0.7 mi West 4.6 mph - N/A   Overcast
4:25 AM 48.2 °F 48.2 °F 100% 29.47 in 0.6 mi WSW 4.6 mph - N/A   Overcast
4:55 AM 48.2 °F 48.2 °F 100% 29.47 in 0.7 mi WSW 4.6 mph - N/A   Overcast
5:05 AM 48.2 °F 48.2 °F 100% 29.47 in 1.1 mi WSW 3.5 mph - N/A   Mostly Cloudy
5:12 AM 48.2 °F 48.2 °F 100% 29.47 in 1.2 mi SW 3.5 mph - N/A   Mostly Cloudy
5:17 AM 48.2 °F 48.2 °F 100% 29.47 in 1.7 mi SSW 4.6 mph - N/A   Overcast
5:25 AM 48.2 °F 48.2 °F 100% 29.47 in 1.6 mi South 4.6 mph - N/A   Overcast
5:29 AM 48.2 °F 48.2 °F 100% 29.47 in 1.4 mi South 4.6 mph - N/A   Overcast
5:35 AM 48.2 °F 48.2 °F 100% 29.47 in 0.9 mi SSW 4.6 mph - N/A   Overcast
5:39 AM 48.2 °F 48.2 °F 100% 29.47 in 0.7 mi SSW 4.6 mph - N/A   Overcast
5:43 AM 48.2 °F 48.2 °F 100% 29.50 in 0.8 mi SSW 4.6 mph - N/A   Overcast
5:48 AM 48.2 °F 48.2 °F 100% 29.50 in 0.6 mi SSW 4.6 mph - N/A   Overcast
5:55 AM 48.2 °F 48.2 °F 100% 29.50 in 0.6 mi SSW 4.6 mph - N/A   Overcast
6:08 AM 48.2 °F 48.2 °F 100% 29.47 in 0.9 mi WSW 4.6 mph - N/A   Overcast
6:25 AM 48.2 °F 48.2 °F 100% 29.50 in 1.1 mi WSW 5.8 mph - N/A   Overcast
6:31 AM 48.2 °F 48.2 °F 100% 29.50 in 1.6 mi WSW 5.8 mph - N/A   Overcast
6:40 AM 48.2 °F 48.2 °F 100% 29.50 in 1.8 mi WSW 5.8 mph - N/A   Overcast
6:45 AM 48.2 °F 48.2 °F 100% 29.50 in 1.6 mi WSW 5.8 mph - N/A   Overcast
6:48 AM 48.2 °F 48.2 °F 100% 29.50 in 1.6 mi WSW 5.8 mph - N/A   Overcast
6:55 AM 50.0 °F 48.2 °F 94% 29.50 in 1.5 mi West 5.8 mph - N/A   Overcast
6:56 AM 50.0 °F 48.2 °F 94% 29.50 in 1.4 mi WSW 5.8 mph - N/A   Mostly Cloudy
7:04 AM 50.0 °F 48.2 °F 94% 29.50 in - WSW 5.8 mph - N/A   Mostly Cloudy
7:10 AM 50.0 °F 48.2 °F 94% 29.50 in 2.2 mi WSW 5.8 mph - N/A   Mostly Cloudy
7:25 AM 48.2 °F 48.2 °F 100% 29.50 in - West 5.8 mph - N/A   Mostly Cloudy
7:28 AM 50.0 °F 48.2 °F 94% 29.50 in - West 6.9 mph - N/A   Mostly Cloudy
7:41 AM 50.0 °F 48.2 °F 94% 29.50 in 2.8 mi West 6.9 mph - N/A   Overcast
7:55 AM 48.2 °F 48.2 °F 100% 29.50 in 3.1 mi West 8.1 mph - N/A   Overcast
8:00 AM 49 °F 48 °F 94% 29.53 in 3 mi WNW 8.9 mph - -   Mist
8:07 AM 48.2 °F 48.2 °F 100% 29.53 in - WNW 6.9 mph - N/A   Overcast
8:11 AM 48.2 °F 48.2 °F 100% 29.53 in - WNW 5.8 mph - N/A   Overcast
8:25 AM 48.2 °F 48.2 °F 100% 29.53 in 3.1 mi WNW 5.8 mph - N/A   Overcast
8:26 AM 48.2 °F 48.2 °F 100% 29.53 in - WNW 5.8 mph - N/A   Overcast
8:45 AM 48.2 °F 48.2 °F 100% 29.53 in 3.1 mi West 6.9 mph - N/A   Overcast
8:55 AM 48.2 °F 48.2 °F 100% 29.53 in 3.7 mi West 5.8 mph - N/A   Mostly Cloudy
8:59 AM 48.2 °F 48.2 °F 100% 29.53 in 4.3 mi West 6.9 mph - N/A   Overcast
9:11 AM 48.2 °F 48.2 °F 100% 29.53 in 5.6 mi West 8.1 mph - N/A   Overcast
9:16 AM 48.2 °F 48.2 °F 100% 29.56 in 6.2 mi West 8.1 mph - N/A   Overcast
9:25 AM 48.2 °F 48.2 °F 100% 29.56 in 6.2 mi West 8.1 mph - N/A   Overcast
9:48 AM 50.0 °F 48.2 °F 94% 29.56 in 6.2 mi WNW 8.1 mph - N/A   Overcast
9:55 AM 50.0 °F 48.2 °F 94% 29.56 in 6.2 mi WNW 8.1 mph - N/A   Overcast
10:06 AM 50.0 °F 50.0 °F 100% 29.56 in 6.2 mi WNW 8.1 mph - N/A   Overcast
10:07 AM 50.0 °F 50.0 °F 100% 29.56 in 6.2 mi WNW 8.1 mph - N/A   Overcast
10:25 AM 50.0 °F 50.0 °F 100% 29.56 in 6.2 mi WNW 8.1 mph - N/A   Overcast
10:55 AM 50.0 °F 48.2 °F 94% 29.56 in 6.2 mi NW 9.2 mph - N/A   Overcast
11:12 AM 50.0 °F 48.2 °F 94% 29.56 in 6.2 mi NW 8.1 mph - N/A   Overcast
11:25 AM 50.0 °F 48.2 °F 94% 29.56 in 6.2 mi NNW 9.2 mph - N/A   Overcast
11:30 AM 50.0 °F 48.2 °F 94% 29.59 in 6.2 mi NNW 8.1 mph - N/A   Overcast
11:55 AM 51.8 °F 48.2 °F 88% 29.59 in 6.2 mi NW 8.1 mph - N/A   Overcast
12:14 PM 51.8 °F 50.0 °F 94% 29.59 in 6.2 mi NW 8.1 mph - N/A   Overcast
12:21 PM 51.8 °F 48.2 °F 88% 29.59 in 6.2 mi NW 9.2 mph - N/A   Overcast
12:25 PM 51.8 °F 48.2 °F 88% 29.59 in 6.2 mi NW 9.2 mph - N/A   Overcast
12:36 PM 51.8 °F 50.0 °F 94% 29.59 in 6.2 mi NNW 8.1 mph - N/A   Overcast
12:55 PM 51.8 °F 50.0 °F 94% 29.59 in 6.2 mi NW 9.2 mph - N/A   Overcast
1:25 PM 51.8 °F 48.2 °F 88% 29.59 in 6.2 mi NW 9.2 mph - N/A   Overcast
1:55 PM 51.8 °F 48.2 °F 88% 29.59 in 6.2 mi NW 8.1 mph - N/A   Overcast
2:00 PM 52 °F 49 °F 85% 29.60 in 9 mi NNW 6.7 mph - -   Partly Cloudy
2:25 PM 51.8 °F 48.2 °F 88% 29.59 in 6.2 mi NW 8.1 mph - N/A   Overcast
2:55 PM 51.8 °F 48.2 °F 88% 29.59 in 6.2 mi NW 8.1 mph - N/A   Overcast
3:25 PM 51.8 °F 48.2 °F 88% 29.59 in 6.2 mi North 8.1 mph - N/A   Overcast
3:55 PM 51.8 °F 48.2 °F 88% 29.59 in 6.2 mi NNW 6.9 mph - N/A   Overcast
4:08 PM 51.8 °F 48.2 °F 88% 29.59 in 6.2 mi NNW 8.1 mph - N/A   Overcast
4:25 PM 51.8 °F 48.2 °F 88% 29.59 in 6.2 mi NNW 6.9 mph - N/A   Overcast
4:55 PM 51.8 °F 48.2 °F 88% 29.59 in 6.2 mi NNW 6.9 mph - N/A   Overcast
5:25 PM 51.8 °F 48.2 °F 88% 29.59 in 6.2 mi NNW 6.9 mph - N/A   Overcast
5:55 PM 51.8 °F 48.2 °F 88% 29.62 in 6.2 mi NW 5.8 mph - N/A   Overcast
6:25 PM 51.8 °F 48.2 °F 88% 29.62 in 6.2 mi NW 5.8 mph - N/A   Overcast
6:55 PM 50.0 °F 48.2 °F 94% 29.62 in 6.2 mi WNW 4.6 mph - N/A   Overcast
7:25 PM 50.0 °F 48.2 °F 94% 29.62 in 6.2 mi WNW 5.8 mph - N/A   Overcast
7:55 PM 50.0 °F 48.2 °F 94% 29.62 in 6.2 mi West 6.9 mph - N/A   Overcast
8:00 PM 51 °F 48 °F 84% 29.65 in 7 mi West 6.7 mph - - Rain Rain
8:25 PM 50.0 °F 48.2 °F 94% 29.62 in 5.0 mi West 8.1 mph - N/A   Overcast
8:29 PM 50.0 °F 48.2 °F 94% 29.62 in 5.0 mi West 8.1 mph - N/A   Overcast
8:36 PM 50.0 °F 48.2 °F 94% 29.62 in 4.3 mi West 8.1 mph - N/A   Overcast
8:45 PM 50.0 °F 48.2 °F 94% 29.62 in 4.3 mi West 6.9 mph - N/A   Overcast
8:55 PM 50.0 °F 46.4 °F 87% 29.62 in 3.7 mi West 8.1 mph - N/A   Overcast
9:11 PM 50.0 °F 46.4 °F 87% 29.62 in 4.3 mi West 8.1 mph - N/A   Mostly Cloudy
9:25 PM 50.0 °F 46.4 °F 87% 29.62 in 4.3 mi West 9.2 mph - N/A   Mostly Cloudy
9:55 PM 50.0 °F 46.4 °F 87% 29.62 in 3.7 mi WNW 9.2 mph - N/A   Overcast
10:01 PM 50.0 °F 46.4 °F 87% 29.62 in - WNW 9.2 mph - N/A   Drizzle
10:14 PM 48.2 °F 46.4 °F 93% 29.62 in 3.1 mi NW 9.2 mph - N/A   Light Drizzle
10:25 PM 48.2 °F 46.4 °F 93% 29.62 in 3.7 mi WNW 6.9 mph - N/A   Overcast
10:42 PM 48.2 °F 46.4 °F 93% 29.62 in - NW 8.1 mph - N/A   Overcast
10:55 PM 48.2 °F 46.4 °F 93% 29.62 in 3.1 mi NW 8.1 mph - N/A Rain Light Rain
11:02 PM 48.2 °F 46.4 °F 93% 29.62 in 3.1 mi NW 8.1 mph - N/A Rain Light Rain
11:09 PM 48.2 °F 46.4 °F 93% 29.62 in 3.1 mi NW 8.1 mph - N/A Rain Light Rain
11:25 PM 48.2 °F 46.4 °F 93% 29.62 in 3.1 mi NNW 8.1 mph - N/A   Overcast
11:40 PM 48.2 °F 46.4 °F 93% 29.62 in - NNW 9.2 mph - N/A   Overcast
11:55 PM 48.2 °F 46.4 °F 93% 29.62 in 1.9 mi NW 6.9 mph - N/A Rain Light Rain
11:59 PM 48.2 °F 46.4 °F 93% 29.62 in - West 6.9 mph - N/A Rain Light Rain Showers